Hourly Weather Roundup
Issued by NWS Central Illinois

Home | Current Version | Previous Version | Text Only | Print | Product List | Glossary On
Versions: 1 2 3 4 5 6 7 8 9 10 11 12 13 14 15 16 17 18 19 20 21 22 23 24 25 26 27 28 29 30 31 32 33 34 35 36 37 38 39 40 41 42 43 44 45 46 47 48 49 50
000
NZUS43 KILX 220110
HWRILX

AREA WEATHER ROUNDUP
NATIONAL WEATHER SERVICE, LINCOLN IL
700 PM CST SAT JAN 21 2017


CITY           SKY/WX    TMP DP  RH WIND       PRES   REMARKS
BLOOMINGTON    PTCLDY    49  42  77 W6        29.57R
CHAMPAIGN      PTCLDY    51  46  83 SW5       29.56R
DANVILLE       CLEAR     52  50  92 SW6       29.55R
DECATUR        MOCLDY    50  48  93 SE6       29.55R
EFFINGHAM      CLEAR     59  53  79 SE5       29.58R
FLORA          MOCLDY    59  52  78 S7        29.57R
GALESBURG      FOG       35  35 100 N3        29.56R VSB<1/4
JACKSONVILLE   PTCLDY    47  41  80 NW3       29.55R
LACON          CLEAR     47  43  87 W3        29.56R
LAWRENCEVILLE  PTCLDY    55  51  86 S9        29.58S
LITCHFIELD     PTCLDY    53  47  81 S5        29.54R
$$


CITY           SKY/WX    TMP DP  RH WIND       PRES   REMARKS
LINCOLN        PTCLDY    47  44  90 CALM      29.56R
MACOMB         CLEAR     41  40  97 NW5       29.58R FOG
MATTOON        CLOUDY    54  49  83 SE3       29.55R
MT CARMEL AP   MOCLDY    59  50  72 S7        29.58S
OLNEY-NOBLE AP CLEAR     55  54  94 S5        29.58R
PARIS          MOCLDY    52  51  95 S3        29.57S
PEORIA         CLEAR     49  43  80 CALM      29.56R
PONTIAC        CLOUDY    47  44  89 NW5       29.57R
RANTOUL        PTCLDY    52  49  90 SW3       29.56R
SPRINGFIELD    PTCLDY    49  43  80 CALM      29.55R
TAYLORVILLE    MOCLDY    52  49  88 CALM      29.55R
$$

...REGIONAL REPORTS...


CITY           SKY/WX    TMP DP  RH WIND       PRES   REMARKS
CHICAGO O`HARE CLEAR     48  42  80 SW3       29.54R
KANKAKEE       CLEAR     47  44  88 CALM      29.57R
MOLINE         CLOUDY    43  40  89 CALM      29.56R
MOUNT STERLING CLEAR     44  40  84 NW5       29.55R
MOUNT VERNON   PTCLDY    56  51  84 CALM      29.57R
PITTSFIELD     CLOUDY    51  42  71 NW3       29.56R
QUINCY         PTCLDY    48  42  80 NW8       29.55R
ROCKFORD       CLOUDY    44  41  89 CALM      29.57R FOG
$$


CITY           SKY/WX    TMP DP  RH WIND       PRES   REMARKS
BURLINGTON     CLEAR     43  41  93 W5        29.56R
CEDAR RAPIDS   CLOUDY    40  39  97 SW7       29.54R
DES MOINES     PTCLDY    41  38  89 S3        29.54R
KIRKSVILLE     FOG       38  38 100 CALM      29.56S VSB 1/2
OTTUMWA        PTCLDY    38  35  89 W5        29.54S WCI  34
ST LOUIS       CLOUDY    59  40  49 CALM      29.54R
$$


CITY           SKY/WX    TMP DP  RH WIND       PRES   REMARKS
TERRE HAUTE    PTCLDY    55  49  80 S7        29.58R
EVANSVILLE     PTCLDY    58  49  72 CALM      29.60R
INDIANAPOLIS   MOCLDY    57  50  77 S6        29.59R
LAFAYETTE      CLEAR     50  48  93 CALM      29.56R
MADISON        CLOUDY    43  41  93 CALM      29.54R
MILWAUKEE      MOCLDY    48  42  80 W8        29.55R
$$






USA.gov is the U.S. government's official web portal to all federal, state and local government web resources and services.